Weather History for KDUJ - May, 2014

Change the Weather History Date:

Saturday, May 10, 2014

  Actual Average Record
Temperature  
Mean Temperature 63 °F 55 °F  
Max Temperature 70 °F 66 °F 84 °F (1979)
Min Temperature 55 °F 44 °F 22 °F (1966)
Degree Days  
Heating Degree Days 2 11  
Month to date heating degree days 104 118  
Since 1 July heating degree days 6691 6631  
Cooling Degree Days 0 0  
Month to date cooling degree days 9 0  
Year to date cooling degree days 17 4  
Growing Degree Days 13 (Base 50)    
Moisture  
Dew Point 57 °F    
Average Humidity 75    
Maximum Humidity 93    
Minimum Humidity 57    
Precipitation  
Precipitation 0.05 in 0.13 in 0.84 in (1989)
Month to date precipitation 0.56 1.27  
Sea Level Pressure  
Sea Level Pressure 29.92 in    
Wind  
Wind Speed 11 mph (WSW)    
Max Wind Speed 21 mph    
Max Gust Speed 26 mph    
Visibility 10 miles    
Events Rain    
T = Trace of Precipitation, MM = Missing Value Source: NWS Daily Summary

Daily Weather History Graph

Daily Weather History Graph

Search for Another Location

Airport or City:

Trip Planner

Search our weather history database for the weather conditions in past years. The results will help you decide how hot, cold, wet, or windy it might be!

Date:

Astronomy

May. 10, 2014 Rise Set
Actual Time 6:02 AM EDT 8:22 PM EDT
Civil Twilight 5:31 AM EDT 8:53 PM EDT
Nautical Twilight 4:53 AM EDT 9:31 PM EDT
Astronomical Twilight 4:11 AM EDT 10:13 PM EDT
Moon 4:13 PM EDT (5/10) 3:37 AM EDT (5/10)
Length of Visible Light 15h 21m
Length of Day
14h 19m
Waxing Gibbous, 82% of the Moon is Illuminated
May 10
Waxing Gibbous
May 14
Full
May 21
Last Quarter
May 28
New
Jun 5
First Quarter

Hourly Weather History & Observations

Time (EDT) Temp. Dew Point Humidity Pressure Visibility Wind Dir Wind Speed Gust Speed Precip Events Conditions
12:56 AM 66.0 °F 57.9 °F 75% 29.86 in 10.0 mi SW 12.7 mph 21.9 mph N/A   Overcast
1:43 AM 66.0 °F 57.9 °F 75% 29.90 in 10.0 mi WSW 11.5 mph - N/A   Overcast
1:56 AM 66.0 °F 57.9 °F 75% 29.86 in 10.0 mi SW 12.7 mph - N/A   Overcast
2:56 AM 64.9 °F 59.0 °F 81% 29.86 in 10.0 mi WSW 11.5 mph - N/A   Overcast
3:56 AM 64.9 °F 59.0 °F 81% 29.86 in 10.0 mi WSW 9.2 mph - N/A   Overcast
4:49 AM 64.0 °F 59.0 °F 84% 29.91 in 10.0 mi WSW 11.5 mph - N/A   Mostly Cloudy
4:56 AM 64.9 °F 59.0 °F 81% 29.87 in 10.0 mi WSW 11.5 mph - N/A   Mostly Cloudy
5:56 AM 64.0 °F 60.1 °F 87% 29.88 in 10.0 mi WSW 12.7 mph - N/A   Mostly Cloudy
6:34 AM 64.0 °F 59.0 °F 84% 29.93 in 10.0 mi SW 11.5 mph - N/A   Scattered Clouds
6:51 AM 64.4 °F 60.8 °F 88% 29.93 in 10.0 mi WSW 10.4 mph - N/A   Mostly Cloudy
6:56 AM 64.0 °F 59.0 °F 84% 29.90 in 10.0 mi WSW 13.8 mph - N/A   Mostly Cloudy
7:56 AM 64.9 °F 59.0 °F 81% 29.91 in 10.0 mi SW 10.4 mph - N/A   Mostly Cloudy
8:56 AM 64.9 °F 57.9 °F 78% 29.92 in 10.0 mi WSW 16.1 mph - N/A   Overcast
9:56 AM 66.0 °F 57.9 °F 75% 29.93 in 10.0 mi SW 13.8 mph 23.0 mph N/A   Overcast
10:32 AM 68.0 °F 57.9 °F 70% 29.95 in 10.0 mi WSW 15.0 mph 25.3 mph N/A   Mostly Cloudy
10:56 AM 68.0 °F 57.0 °F 68% 29.93 in 10.0 mi SW 18.4 mph 26.5 mph N/A   Mostly Cloudy
11:10 AM 69.1 °F 57.0 °F 65% 29.95 in 10.0 mi WSW 17.3 mph 24.2 mph N/A   Overcast
11:22 AM 69.1 °F 55.9 °F 63% 29.96 in 10.0 mi WSW 17.3 mph 25.3 mph N/A   Mostly Cloudy
11:56 AM 69.1 °F 55.9 °F 63% 29.92 in 10.0 mi SW 12.7 mph - N/A   Overcast
12:56 PM 69.1 °F 55.9 °F 63% 29.90 in 10.0 mi SW 16.1 mph 21.9 mph N/A   Mostly Cloudy
1:56 PM 69.1 °F 55.0 °F 61% 29.89 in 10.0 mi WSW 17.3 mph 21.9 mph N/A   Mostly Cloudy
2:56 PM 68.0 °F 55.0 °F 63% 29.89 in 10.0 mi WSW 12.7 mph 21.9 mph N/A   Overcast
3:28 PM 64.0 °F 57.0 °F 78% 29.92 in 6.0 mi SW 15.0 mph 26.5 mph 0.01 in Rain Light Rain
3:38 PM 63.0 °F 57.9 °F 84% 29.92 in 4.0 mi WSW 15.0 mph - 0.03 in Rain Light Rain
3:56 PM 63.0 °F 59.0 °F 87% 29.90 in 4.0 mi WSW 10.4 mph - 0.04 in Rain Light Rain
4:06 PM 63.0 °F 59.0 °F 87% 29.92 in 10.0 mi WSW 11.5 mph - 0.01 in   Overcast
4:56 PM 63.0 °F 57.0 °F 81% 29.91 in 10.0 mi WSW 11.5 mph - 0.01 in   Overcast
5:54 PM 62.6 °F 57.2 °F 82% 29.91 in 10.0 mi WSW 9.2 mph - N/A   Scattered Clouds
5:56 PM 62.1 °F 57.0 °F 84% 29.89 in 10.0 mi WSW 9.2 mph - N/A   Scattered Clouds
6:13 PM 62.1 °F 57.0 °F 84% 29.92 in 10.0 mi WSW 12.7 mph - N/A   Mostly Cloudy
6:56 PM 62.1 °F 57.0 °F 84% 29.90 in 10.0 mi WSW 9.2 mph - N/A   Overcast
7:38 PM 61.0 °F 55.9 °F 83% 29.93 in 10.0 mi SW 8.1 mph - N/A   Overcast
7:56 PM 61.0 °F 55.9 °F 83% 29.92 in 10.0 mi WSW 8.1 mph - N/A   Overcast
8:56 PM 57.9 °F 55.9 °F 93% 29.93 in 10.0 mi SW 6.9 mph - N/A   Scattered Clouds
9:40 PM 59.0 °F 55.9 °F 90% 29.96 in 10.0 mi SW 6.9 mph - N/A   Scattered Clouds
9:51 PM 59.0 °F 55.4 °F 88% 29.96 in 10.0 mi SW 8.1 mph - N/A   Mostly Cloudy
9:56 PM 59.0 °F 55.9 °F 90% 29.94 in 10.0 mi SW 9.2 mph - N/A   Mostly Cloudy
10:56 PM 59.0 °F 55.0 °F 87% 29.97 in 10.0 mi WNW 8.1 mph - N/A   Overcast
11:02 PM 59.0 °F 54.0 °F 83% 29.99 in 10.0 mi West 8.1 mph - N/A   Mostly Cloudy
11:56 PM 57.0 °F 42.1 °F 57% 29.98 in 10.0 mi West 6.9 mph - N/A   Mostly Cloudy